Location: Shepherdstown, WV
(39.4326°N, 77.8042°W)
Time: 18:19:36
(UTC-04:00)

Vanguard 3 - Pass Details

Date: 27 July 2021
Orbit: 510 x 3260 km, 33.3° (Epoch: 18 September)

Event Time Altitude Azimuth Distance (km) Brightness Sun altitude
Rises 01:36:56 0° 281° (W) 7,230 12.1 -31.2°
Reaches altitude 10° 01:42:12 10° 277° (W) 6,153 11.6 -31.1°
Maximum altitude 01:59:37 47° 212° (SSW) 3,209 9.6 -30.6°
Enters shadow 02:00:37 47° 203° (SSW) 3,160 9.6 -30.6°
